Chongqing Jiangbei International Airport
ZUCK : now visible

Airfield :











YOU CAN JOIN US ON...

 
LOGIN :

Register | Disclaimer

   EN    FR    IT 

 









Legend :    VFR   Marginal VFR   IFR   Intensive IFR   Very Intensive IFR
Visi :
Ceiling :
>= 8 km
>= 3000ft
5 to 8 km
1000 to 3000 ft
1500m to 5 km
500 to 1000 ft
800 to 1500m
200 to 500 ft
< 800m
< 200 ft
Symbols :   Thunderstorms  Fog  Heavy snow  Heavy precipitations  Wind > 20 kt






- Airport Elevation : 1365 ft
- IATA code : CKG


ZUCK - Chongqing Jiangbei International

CURRENT METAR :
  • 061200Z 09003MPS CAVOK 35/23 Q1001 NOSIG

EXPIRED METARs :
  • 061100Z 10004MPS 080V140 9999 FEW050 36/23 Q1000 NOSIG
  • 061000Z 13004MPS 100V190 9999 FEW033 37/22 Q1000 NOSIG

TAF TAF ZUCK
Valid from the 06 at 12:00 until the 07 at 12:00 UTC


060901Z 0612/0712 14004MPS 6000 SCT030 TX38/0708Z TN30/0621Z
ZPKM FIR / Asia



MET'MAP, your aeronautical weather chart ! - Copyright ORBIFLY December 2007 - Disclaimer

ORBIFLY MET'MAP TEAM :

Programming & Development : Alexandra Zaïnal
Concept & original design : Baudouin d'Aumeries
Assistance for programming : Marc-Olivier Méhu
Technical & hardware support : Manuel Goepfert

Contact : metmap@orbifly.com




SOURCES & CREDITS :

   NOAA       Earth
Advisory